Content
SEND FEEDBACK

Daily
Averages
Monthly
Summary
Malaysia

KUCHING, MALAYSIA


Home > Asia > Malaysia
Elevation: 89 feet     Latitude: 01 29N     Longitude: 110 20E

WEATHER
 
SELECT A DAY
Number of Records: 270,075;   Date Range: 8/9/96 - 7/30/14
 
SHARE

PRINT THIS DATA

[ ← Previous Day ]
WEATHER ALMANAC - JANUARY 23, 2013
[ Next Day → ]
[ °C ]   °F
Weather ElementAverageHighLow
Temperature77.7 °F82.4 °F (12:30 pm)75.2 °F (3:00 am)
Dewpoint75.5 °F78.8 °F (3:00 pm)73.4 °F (3:00 am)
Humidity92.8 %100 % (3:30 am)84 % (12:00 pm)
Barometer29.86 in29.92 in (12:30 am)29.80 in (3:00 pm)
Wind Speed4.4 mph10.4 mph (9:00 am)
Weather ElementAverage
Visibility5.6 mi
Wind DirectionSSW (187.1 °)

Weather ElementTotal
Precipitation---
Cooling Degree Days13.8 (Base 65)
Growing Degree Days28.8 (Base 50)
Averaged from 55 records on January 23, 2013
WEATHER CONDITIONS BREAKOUT
WIND DIRECTION BREAKOUT
WEATHER BY HOUR - JANUARY 23, 2013
[ °C ]   °F
Local TimeTemperatureDewpointHumidityBarometerVisibilityWind DirectionWind SpeedGust SpeedPrecipitationEventsConditions
12:30 AM77.0 °F75.2 °F94 %29.92 in6.2 miNE (50°)3.5 mphRain-ThunderstormLight Thunderstorms and Rain
1:00 AM77.0 °F75.2 °F94 %29.89 in6.2 miEast (100°)1.2 mphRain-ThunderstormLight Thunderstorms and Rain
1:30 AM77.0 °F75.2 °F94 %29.89 in6.2 miESE (120°)2.3 mphRain-ThunderstormLight Thunderstorms and Rain
2:00 AM76.0 °F75.0 °F96 %29.88 in6.0 miEast (100°)2.3 mphRain-ThunderstormThunderstorms and Rain
2:00 AM77.0 °F75.2 °F94 %29.86 in6.2 miEast (100°)2.3 mphRain-ThunderstormLight Thunderstorms and Rain
2:30 AM77.0 °F75.2 °F94 %29.86 in5.0 miSE (130°)2.3 mphRain-ThunderstormLight Thunderstorms and Rain
3:00 AM75.2 °F73.4 °F94 %29.83 in6.2 miNE (40°)5.8 mphRain-ThunderstormLight Thunderstorms and Rain
3:30 AM75.2 °F75.2 °F100 %29.83 in6.2 miNE (40°)3.5 mphRainLight Rain
4:00 AM77.0 °F75.2 °F94 %29.83 in6.2 miCalmRainLight Rain
4:30 AM77.0 °F75.2 °F94 %29.83 in5.0 miSSW (210°)5.8 mphRainLight Rain
5:00 AM76.0 °F75.0 °F95 %29.84 in5.0 miSSE (160°)5.8 mphRainLight Rain
5:00 AM77.0 °F75.2 °F94 %29.83 in5.0 miSSE (160°)5.8 mphRainLight Rain
5:30 AM77.0 °F75.2 °F94 %29.83 in5.0 miWSW (250°)1.2 mphRainLight Rain
6:00 AM77.0 °F75.2 °F94 %29.83 in5.0 miSouth (170°)3.5 mphRainLight Rain
6:30 AM77.0 °F75.2 °F94 %29.83 in6.2 miSouth (170°)3.5 mphRainLight Rain
7:00 AM75.2 °F75.2 °F100 %29.86 in6.2 miSouth (190°)3.5 mphMostly Cloudy
7:30 AM77.0 °F75.2 °F94 %29.86 in6.2 miSSW (200°)4.6 mphMostly Cloudy
8:00 AM78.0 °F76.0 °F93 %29.88 in9.0 miSouth (190°)4.6 mphPartly Cloudy
8:00 AM78.8 °F77.0 °F94 %29.86 in6.2 miSouth (190°)4.6 mphMostly Cloudy
8:30 AM78.8 °F77.0 °F94 %29.89 in6.2 miNW (320°)2.3 mphThunderstormThunderstorm
9:00 AM77.0 °F75.2 °F94 %29.89 in0.6 miNorth (350°)10.4 mphRain-ThunderstormHeavy Thunderstorms and Rain
9:30 AM77.0 °F75.2 °F94 %29.89 in1.6 miNE (40°)4.6 mphRain-ThunderstormThunderstorms and Rain
10:00 AM77.0 °F75.2 °F94 %29.92 in1.6 miNNE (20°)5.8 mphRain-ThunderstormThunderstorms and Rain
10:30 AM77.0 °F75.2 °F94 %29.92 in3.7 miNorth (10°)5.8 mphRain-ThunderstormLight Thunderstorms and Rain
11:00 AM76.0 °F74.0 °F90 %29.91 in5.0 miNNE (20°)9.2 mphRain-ThunderstormThunderstorms and Rain
11:00 AM75.2 °F73.4 °F94 %29.89 in5.0 miNNE (20°)9.2 mphRain-ThunderstormLight Thunderstorms and Rain
11:30 AM77.0 °F73.4 °F89 %29.89 in6.2 miNNE (30°)5.8 mphRainLight Rain
12:00 PM80.6 °F75.2 °F84 %29.89 in6.2 miNE (40°)2.3 mphRainLight Rain
12:30 PM82.4 °F77.0 °F84 %29.86 in6.2 miNorth (350°)3.5 mphMostly Cloudy
1:00 PM80.6 °F77.0 °F89 %29.86 in6.2 miNW (310°)5.8 mphMostly Cloudy
1:30 PM80.6 °F77.0 °F89 %29.86 in5.0 miNW (310°)8.1 mphRainLight Rain
2:00 PM80.0 °F76.0 °F86 %29.85 in5.0 miNNW (330°)6.9 mphRainLight Rain
2:00 PM80.6 °F77.0 °F89 %29.83 in5.0 miNNW (330°)6.9 mphRainLight Rain
2:30 PM80.6 °F77.0 °F89 %29.83 in5.6 miNW (320°)4.6 mphRainLight Rain
3:00 PM82.4 °F78.8 °F89 %29.80 in5.6 miSW (220°)2.3 mphRainLight Rain
3:30 PM82.4 °F78.8 °F89 %29.80 in5.6 miWest (270°)4.6 mphRainLight Rain
4:00 PM78.8 °F75.2 °F89 %29.80 in4.3 miNE (50°)3.5 mphRainLight Rain
4:30 PM78.8 °F75.2 °F89 %29.80 in6.2 miSW (230°)4.6 mphRainLight Rain
5:00 PM78.0 °F76.0 °F90 %29.82 in6.0 miWest (280°)8.1 mphRainLight Rain
5:00 PM78.8 °F75.2 °F89 %29.80 in6.2 miWest (280°)8.1 mphRainLight Rain
5:30 PM78.8 °F75.2 °F89 %29.80 in6.2 miWSW (240°)4.6 mphMostly Cloudy
6:00 PM78.8 °F77.0 °F94 %29.80 in6.2 miSSW (210°)5.8 mphMostly Cloudy
6:30 PM77.0 °F75.2 °F94 %29.83 in3.1 miWNW (290°)8.1 mphRainLight Rain
7:00 PM77.0 °F75.2 °F94 %29.83 in5.0 miSW (220°)5.8 mphRainLight Rain
7:30 PM77.0 °F75.2 °F94 %29.86 in6.2 miSSW (200°)2.3 mphMostly Cloudy
8:00 PM77.0 °F76.0 °F95 %29.88 in9.0 miWSW (240°)4.6 mphRainLight Rain
8:00 PM77.0 °F75.2 °F94 %29.86 in6.2 miWSW (240°)4.6 mphMostly Cloudy
8:30 PM77.0 °F75.2 °F94 %29.89 in6.2 miWSW (250°)3.5 mphMostly Cloudy
9:00 PM77.0 °F75.2 °F94 %29.89 in6.2 miWest (260°)2.3 mphMostly Cloudy
9:30 PM77.0 °F75.2 °F94 %29.89 in6.2 miWSW (250°)2.3 mphMostly Cloudy
10:00 PM77.0 °F75.2 °F94 %29.89 in6.2 miSW (230°)2.3 mphMostly Cloudy
10:30 PM77.0 °F75.2 °F94 %29.89 in6.2 miWSW (250°)2.3 mphMostly Cloudy
11:00 PM76.0 °F75.0 °F94 %29.91 in9.0 miSW (230°)2.3 mphPartly Cloudy
11:00 PM75.2 °F75.2 °F100 %29.89 in6.2 miSW (230°)2.3 mphMostly Cloudy
11:30 PM75.2 °F75.2 °F100 %29.89 in6.2 miWSW (250°)2.3 mphMostly Cloudy
Hourly data recorded from WBGG, located miles away from Kuching, Malaysia







STORIES FROM OUR PARTNERS